Total_Precipitation_Accumulation
0.04 0.04 0.03 0.03 0.03 0.03 0.03 0.03 0.03 0.02 0.02 0.02 0.02 0.02 0.02 0.03 0.04 0.05 0.05 0.05 0.03 0.03 0.02 0.02 0.02 0.02 0.01 0.01 0.01 0.00 0.01 0.00 0.00 0.00 0.00 0.00 0.00 0.00 0.00 0.00 0.00 0.00 0.00 0.00 0.01 0.00 0.01 0.00 0.00 0.01 0.01 0.01 0.01 0.06 0.01 0.03 0.14 0.34 1.78 1.54 1.84 2.24 2.10 3.21 3.09 3.64 2.61 3.02 2.30 1.97 1.82 1.78 0.86 0.59 0.96 0.38 0.42 0.67 0.25 0.22 0.05 0.05 0.06 0.02 0.00 0.00 0.00 0.01
0.05 0.03 0.02 0.02 0.03 0.03 0.03 0.02 0.02 0.02 0.01 0.02 0.03 0.03 0.03 0.03 0.04 0.03 0.04 0.04 0.04 0.04 0.03 0.04 0.02 0.01 0.02 0.01 0.00 0.00 0.01 0.00 0.00 0.00 0.00 0.00 0.00 0.00 0.00 0.00 0.00 0.00 0.00 0.00 0.00 0.00 0.00 0.00 0.00 0.00 0.01 0.03 0.00 0.02 0.02 0.11 0.04 0.44 0.81 1.76 2.17 1.24 1.13 1.68 1.77 3.07 3.10 2.06 1.73 1.96 1.72 1.73 1.52 0.50 0.68 0.75 0.33 0.23 0.18 0.20 0.11 0.05 0.04 0.00 0.01 0.00 0.01 0.02
0.04 0.03 0.03 0.03 0.03 0.03 0.02 0.02 0.02 0.01 0.02 0.02 0.03 0.04 0.04 0.05 0.03 0.03 0.02 0.02 0.03 0.04 0.04 0.03 0.02 0.02 0.01 0.01 0.00 0.00 0.01 0.00 0.00 0.00 0.00 0.00 0.00 0.00 0.00 0.00 0.00 0.00 0.00 0.00 0.00 0.00 0.00 0.00 0.00 0.00 0.00 0.01 0.01 0.06 0.01 0.15 0.08 0.34 0.66 2.07 2.23 0.99 1.53 1.22 2.51 2.59 2.89 2.11 1.66 1.81 1.30 2.07 1.28 1.58 0.64 0.75 0.62 0.54 0.30 0.14 0.06 0.04 0.04 0.02 0.05 0.02 0.02 0.03
0.02 0.03 0.03 0.03 0.03 0.03 0.02 0.02 0.02 0.02 0.03 0.03 0.03 0.04 0.04 0.04 0.03 0.02 0.02 0.03 0.03 0.03 0.04 0.03 0.02 0.02 0.02 0.00 0.00 0.01 0.00 0.00 0.00 0.00 0.00 0.00 0.00 0.00 0.00 0.00 0.00 0.00 0.00 0.00 0.00 0.00 0.00 0.00 0.00 0.00 0.00 0.01 0.00 0.01 0.05 0.07 0.15 1.05 0.60 1.14 1.92 0.72 1.24 1.19 2.34 2.79 2.47 2.32 2.58 1.52 1.76 1.66 1.31 0.97 1.08 0.78 0.73 0.39 0.36 0.08 0.08 0.02 0.01 0.02 0.01 0.02 0.01 0.03
0.03 0.03 0.04 0.03 0.02 0.02 0.02 0.02 0.02 0.02 0.02 0.03 0.03 0.04 0.04 0.03 0.03 0.02 0.03 0.04 0.04 0.03 0.03 0.03 0.03 0.02 0.00 0.00 0.00 0.00 0.00 0.00 0.00 0.00 0.00 0.00 0.00 0.00 0.00 0.00 0.00 0.00 0.00 0.00 0.00 0.00 0.00 0.00 0.00 0.00 0.00 0.00 0.01 0.02 0.02 0.03 0.01 0.09 0.48 0.59 0.80 0.76 1.08 0.75 1.23 1.29 1.92 3.00 3.69 1.73 1.37 1.96 1.49 0.60 0.91 0.73 0.98 0.76 0.45 0.09 0.06 0.00 0.00 0.00 0.01 0.01 0.01 0.01
0.03 0.04 0.03 0.03 0.02 0.01 0.02 0.02 0.02 0.03 0.03 0.03 0.03 0.03 0.03 0.03 0.03 0.04 0.04 0.04 0.03 0.03 0.01 0.02 0.03 0.01 0.01 0.00 0.00 0.01 0.00 0.00 0.00 0.00 0.00 0.00 0.00 0.00 0.00 0.00 0.00 0.00 0.00 0.00 0.00 0.00 0.00 0.00 0.00 0.00 0.00 0.00 0.01 0.03 0.00 0.03 0.03 0.81 0.63 0.58 0.56 0.34 0.93 0.42 1.03 1.77 2.43 2.41 2.49 1.37 1.98 1.29 1.17 0.98 1.03 0.80 2.02 1.02 0.35 0.19 0.04 0.00 0.00 0.00 0.00 0.00 0.01 0.00
0.03 0.04 0.03 0.02 0.02 0.01 0.02 0.02 0.03 0.02 0.03 0.03 0.04 0.03 0.03 0.03 0.04 0.03 0.03 0.02 0.03 0.03 0.02 0.01 0.02 0.01 0.00 0.01 0.00 0.00 0.00 0.00 0.00 0.00 0.00 0.00 0.00 0.00 0.00 0.00 0.00 0.00 0.00 0.00 0.00 0.00 0.00 0.00 0.00 0.00 0.00 0.00 0.00 0.00 0.00 0.01 0.06 0.11 0.74 0.44 0.69 0.52 0.23 0.41 1.11 2.16 2.23 2.01 2.34 2.03 1.33 1.55 1.12 1.46 0.82 1.22 0.79 0.65 0.43 0.37 0.02 0.02 0.00 0.00 0.00 0.00 0.00 0.00
0.03 0.03 0.02 0.02 0.01 0.02 0.02 0.02 0.03 0.04 0.03 0.03 0.03 0.03 0.03 0.03 0.03 0.02 0.01 0.02 0.02 0.02 0.02 0.02 0.02 0.00 0.00 0.00 0.00 0.00 0.00 0.00 0.00 0.00 0.00 0.00 0.00 0.00 0.00 0.00 0.00 0.00 0.00 0.00 0.00 0.00 0.00 0.00 0.00 0.00 0.00 0.00 0.01 0.01 0.00 0.01 0.08 0.24 0.28 0.40 0.48 0.62 0.47 0.72 0.87 2.08 2.90 4.25 3.25 1.97 1.67 1.89 1.06 1.00 0.41 0.78 0.46 0.16 0.35 0.11 0.02 0.00 0.00 0.00 0.00 0.00 0.00 0.00
0.02 0.02 0.02 0.01 0.01 0.02 0.01 0.02 0.03 0.03 0.03 0.02 0.03 0.03 0.03 0.03 0.02 0.02 0.02 0.01 0.02 0.02 0.01 0.02 0.00 0.00 0.01 0.00 0.00 0.00 0.00 0.00 0.00 0.00 0.00 0.00 0.00 0.00 0.00 0.00 0.00 0.00 0.00 0.00 0.00 0.00 0.00 0.00 0.00 0.00 0.00 0.00 0.00 0.00 0.00 0.02 0.47 0.07 0.35 0.12 0.29 0.45 0.57 1.07 1.08 1.64 1.60 2.47 3.14 2.69 2.44 2.03 1.10 0.54 1.27 1.35 0.74 0.42 0.31 0.08 0.01 0.00 0.00 0.00 0.00 0.00 0.00 0.00
0.02 0.02 0.01 0.01 0.01 0.01 0.01 0.02 0.02 0.03 0.03 0.04 0.03 0.04 0.04 0.02 0.01 0.01 0.01 0.01 0.01 0.02 0.01 0.01 0.00 0.01 0.00 0.00 0.00 0.00 0.00 0.00 0.00 0.00 0.00 0.00 0.00 0.00 0.00 0.00 0.00 0.00 0.00 0.00 0.00 0.00 0.00 0.00 0.00 0.00 0.00 0.00 0.00 0.01 0.00 0.02 0.91 0.02 0.12 0.45 0.48 0.93 0.69 1.11 0.80 0.95 1.85 2.04 2.41 3.66 2.82 2.38 0.93 0.56 1.17 1.22 0.30 0.27 0.43 0.05 0.03 0.00 0.00 0.00 0.00 0.00 0.00 0.00
0.03 0.01 0.01 0.01 0.02 0.01 0.01 0.02 0.02 0.02 0.03 0.04 0.04 0.03 0.02 0.02 0.02 0.02 0.01 0.01 0.01 0.01 0.01 0.01 0.00 0.01 0.00 0.00 0.00 0.00 0.00 0.00 0.00 0.00 0.00 0.00 0.00 0.00 0.00 0.00 0.00 0.00 0.00 0.00 0.00 0.00 0.00 0.00 0.00 0.00 0.00 0.04 0.00 0.00 0.00 0.12 0.01 0.04 0.06 0.30 0.59 0.70 0.69 0.98 1.69 1.05 1.92 2.56 2.78 5.87 3.47 2.49 1.94 0.70 1.26 0.55 0.30 0.57 0.57 0.05 0.03 0.00 0.00 0.00 0.00 0.00 0.00 0.00
0.02 0.02 0.01 0.01 0.01 0.01 0.01 0.01 0.02 0.02 0.04 0.04 0.03 0.02 0.03 0.02 0.01 0.01 0.01 0.01 0.01 0.01 0.00 0.01 0.00 0.00 0.00 0.00 0.00 0.00 0.00 0.00 0.00 0.00 0.00 0.00 0.00 0.00 0.00 0.00 0.00 0.00 0.00 0.00 0.00 0.00 0.00 0.00 0.00 0.00 0.01 0.00 0.02 0.00 0.00 0.00 0.02 0.02 0.18 0.67 0.86 1.15 1.20 1.34 1.61 1.97 2.37 1.88 2.74 3.29 2.43 1.97 1.89 1.07 0.81 0.61 0.32 0.37 0.39 0.11 0.02 0.01 0.00 0.01 0.00 0.00 0.00 0.00
0.02 0.01 0.01 0.01 0.01 0.02 0.01 0.02 0.03 0.03 0.03 0.02 0.02 0.02 0.02 0.02 0.01 0.01 0.00 0.00 0.00 0.01 0.02 0.00 0.01 0.00 0.00 0.00 0.00 0.00 0.00 0.00 0.00 0.00 0.00 0.00 0.00 0.00 0.00 0.00 0.00 0.00 0.00 0.00 0.00 0.00 0.00 0.00 0.00 0.00 0.00 0.00 0.00 0.03 0.10 0.01 0.03 0.03 0.07 0.42 0.44 0.92 1.32 1.28 1.95 2.34 2.09 2.62 2.56 2.37 2.30 1.57 2.08 0.96 0.72 0.23 0.37 0.27 0.22 0.24 0.02 0.01 0.00 0.00 0.00 0.00 0.00 0.00
0.02 0.01 0.01 0.01 0.01 0.02 0.02 0.02 0.03 0.03 0.02 0.02 0.02 0.02 0.01 0.01 0.01 0.00 0.00 0.00 0.00 0.01 0.01 0.00 0.00 0.00 0.00 0.00 0.00 0.00 0.00 0.00 0.00 0.00 0.00 0.00 0.00 0.00 0.00 0.00 0.00 0.00 0.00 0.00 0.00 0.00 0.00 0.00 0.00 0.00 0.00 0.00 0.01 0.00 0.34 0.03 0.02 0.31 0.16 0.26 0.57 0.17 1.39 1.09 1.13 1.73 1.96 1.65 1.27 1.08 1.98 1.76 2.01 0.97 0.82 0.26 0.41 0.09 0.15 0.14 0.09 0.01 0.01 0.00 0.00 0.00 0.00 0.00
0.02 0.01 0.01 0.01 0.02 0.02 0.02 0.02 0.02 0.02 0.03 0.02 0.02 0.02 0.01 0.00 0.00 0.00 0.00 0.00 0.00 0.01 0.00 0.02 0.00 0.00 0.00 0.00 0.00 0.00 0.00 0.00 0.00 0.00 0.00 0.00 0.00 0.00 0.00 0.00 0.00 0.00 0.00 0.00 0.00 0.00 0.00 0.00 0.00 0.00 0.00 0.00 0.00 0.03 0.06 0.06 0.02 0.11 0.13 0.40 0.15 0.25 1.23 1.16 0.70 1.36 1.46 1.23 1.43 1.04 1.90 1.88 1.50 1.07 0.79 0.51 0.36 0.81 0.58 0.23 0.04 0.02 0.01 0.00 0.00 0.00 0.00 0.00
0.01 0.01 0.01 0.02 0.02 0.01 0.01 0.02 0.01 0.02 0.02 0.02 0.01 0.01 0.00 0.00 0.00 0.00 0.00 0.00 0.00 0.01 0.02 0.00 0.00 0.00 0.00 0.00 0.00 0.00 0.00 0.00 0.00 0.00 0.00 0.00 0.00 0.00 0.00 0.00 0.00 0.00 0.00 0.00 0.00 0.00 0.00 0.00 0.00 0.00 0.00 0.00 0.00 0.01 0.07 0.08 0.14 0.06 0.09 0.25 0.31 0.33 0.92 1.31 1.62 1.28 1.61 1.51 1.74 1.73 2.62 1.69 1.39 1.08 0.84 0.36 0.77 0.69 0.35 0.20 0.07 0.03 0.03 0.02 0.02 0.01 0.01 0.00
0.01 0.00 0.01 0.01 0.01 0.01 0.02 0.01 0.02 0.01 0.02 0.02 0.01 0.00 0.00 0.00 0.00 0.00 0.00 0.01 0.01 0.00 0.00 0.00 0.00 0.00 0.00 0.00 0.00 0.00 0.00 0.00 0.00 0.00 0.00 0.00 0.00 0.00 0.00 0.00 0.00 0.00 0.00 0.00 0.00 0.00 0.00 0.00 0.00 0.00 0.00 0.00 0.00 0.02 0.11 0.13 0.17 0.13 0.05 0.30 0.62 0.56 0.55 1.01 0.75 1.39 1.59 1.50 1.86 0.94 1.67 1.58 0.80 0.86 0.56 0.47 0.54 0.58 0.14 0.13 0.13 0.05 0.02 0.03 0.05 0.01 0.02 0.02
0.00 0.00 0.00 0.01 0.01 0.02 0.02 0.01 0.02 0.02 0.02 0.01 0.00 0.00 0.00 0.00 0.00 0.00 0.00 0.00 0.00 0.00 0.00 0.00 0.00 0.00 0.00 0.00 0.00 0.00 0.00 0.00 0.00 0.00 0.00 0.00 0.00 0.00 0.00 0.00 0.00 0.00 0.00 0.00 0.00 0.00 0.00 0.00 0.00 0.00 0.00 0.00 0.00 0.02 0.05 0.14 0.09 0.20 0.32 0.18 0.45 0.46 0.56 0.93 0.54 1.04 1.18 1.28 1.80 1.18 1.42 1.70 1.26 0.65 0.93 0.60 0.98 0.57 0.34 0.16 0.44 0.09 0.05 0.04 0.04 0.03 0.06 0.03
0.00 0.00 0.01 0.00 0.02 0.02 0.01 0.02 0.01 0.02 0.02 0.01 0.00 0.00 0.00 0.01 0.00 0.00 0.00 0.00 0.00 0.00 0.00 0.00 0.00 0.00 0.00 0.00 0.00 0.00 0.00 0.00 0.00 0.00 0.00 0.00 0.00 0.00 0.00 0.00 0.00 0.00 0.00 0.00 0.00 0.00 0.00 0.00 0.00 0.00 0.00 0.00 0.00 0.00 0.05 0.06 0.02 0.17 0.31 0.25 0.57 0.60 0.81 1.09 0.74 0.58 0.62 1.08 1.25 1.32 1.11 1.64 1.41 1.66 1.55 1.26 0.47 0.81 0.41 0.45 0.60 0.23 0.09 0.06 0.06 0.02 0.04 0.05
0.01 0.01 0.00 0.00 0.00 0.02 0.02 0.01 0.01 0.02 0.02 0.00 0.00 0.00 0.00 0.00 0.00 0.00 0.00 0.00 0.00 0.00 0.00 0.00 0.00 0.00 0.00 0.00 0.00 0.00 0.00 0.00 0.00 0.00 0.00 0.00 0.00 0.00 0.00 0.00 0.00 0.00 0.00 0.00 0.00 0.00 0.00 0.00 0.00 0.00 0.00 0.00 0.01 0.01 0.03 0.00 0.01 0.03 0.05 0.05 0.32 0.28 0.57 0.68 0.99 0.70 1.43 1.92 1.47 1.32 1.28 1.61 1.26 1.55 1.73 1.60 0.86 1.11 0.74 0.88 0.50 0.35 0.47 0.08 0.05 0.05 0.06 0.02
0.01 0.01 0.00 0.00 0.00 0.01 0.02 0.01 0.01 0.01 0.03 0.00 0.00 0.00 0.00 0.00 0.00 0.00 0.00 0.00 0.00 0.00 0.00 0.00 0.00 0.00 0.00 0.00 0.00 0.00 0.00 0.00 0.00 0.00 0.00 0.00 0.00 0.00 0.00 0.00 0.00 0.00 0.00 0.00 0.00 0.00 0.00 0.00 0.00 0.00 0.00 0.00 0.00 0.00 0.01 0.01 0.02 0.07 0.03 0.15 0.25 0.46 0.82 0.71 0.92 1.24 2.29 1.38 1.42 1.93 1.91 2.23 2.09 1.89 1.95 2.20 0.86 0.66 0.20 0.30 0.30 0.53 0.22 0.19 0.04 0.03 0.08 0.05
0.01 0.00 0.00 0.00 0.00 0.00 0.01 0.01 0.01 0.02 0.02 0.00 0.00 0.00 0.00 0.00 0.00 0.00 0.00 0.00 0.00 0.00 0.00 0.00 0.00 0.00 0.00 0.00 0.00 0.00 0.00 0.00 0.00 0.00 0.00 0.00 0.00 0.00 0.00 0.00 0.00 0.00 0.00 0.00 0.00 0.00 0.00 0.00 0.00 0.00 0.00 0.00 0.00 0.00 0.00 0.03 0.04 0.04 0.11 0.06 0.55 0.40 0.58 0.75 1.48 1.27 1.90 1.53 2.42 2.81 2.43 2.84 2.87 2.42 2.41 2.25 1.10 1.06 0.62 0.42 0.74 0.51 0.41 0.35 0.20 0.06 0.07 0.02
0.01 0.00 0.00 0.01 0.00 0.01 0.00 0.01 0.01 0.02 0.00 0.00 0.00 0.00 0.00 0.00 0.00 0.00 0.00 0.00 0.00 0.00 0.00 0.00 0.00 0.00 0.00 0.00 0.00 0.00 0.00 0.00 0.00 0.00 0.00 0.00 0.00 0.00 0.00 0.00 0.00 0.00 0.00 0.00 0.00 0.00 0.00 0.00 0.00 0.00 0.00 0.00 0.00 0.00 0.00 0.00 0.01 0.02 0.04 0.11 0.23 0.58 0.24 0.52 1.64 1.69 2.35 0.95 2.09 2.01 1.39 2.56 3.35 3.02 3.03 2.25 1.32 1.64 1.58 0.87 0.70 1.19 0.79 0.52 0.25 0.34 0.11 0.04
0.01 0.01 0.00 0.00 0.01 0.00 0.01 0.00 0.02 0.01 0.00 0.00 0.00 0.00 0.00 0.00 0.00 0.00 0.00 0.00 0.00 0.00 0.00 0.00 0.00 0.00 0.00 0.00 0.00 0.00 0.00 0.00 0.00 0.00 0.00 0.00 0.00 0.00 0.00 0.00 0.00 0.00 0.00 0.00 0.00 0.00 0.00 0.00 0.00 0.00 0.00 0.00 0.00 0.00 0.00 0.00 0.01 0.00 0.00 0.02 0.12 0.12 0.33 0.41 0.61 0.46 1.46 1.57 1.20 2.25 2.57 2.89 2.14 2.63 2.08 2.18 1.54 2.19 1.45 1.36 1.37 1.19 0.98 0.48 0.35 0.47 0.36 0.13
0.00 0.01 0.01 0.00 0.00 0.01 0.00 0.01 0.00 0.00 0.00 0.00 0.00 0.00 0.00 0.00 0.00 0.00 0.00 0.00 0.00 0.00 0.00 0.00 0.00 0.00 0.00 0.00 0.00 0.00 0.00 0.00 0.00 0.00 0.00 0.00 0.00 0.00 0.00 0.00 0.00 0.00 0.00 0.00 0.00 0.00 0.00 0.00 0.00 0.00 0.00 0.00 0.00 0.00 0.00 0.00 0.01 0.00 0.00 0.02 0.03 0.03 0.39 0.13 0.20 0.16 0.62 1.18 0.76 0.82 1.62 2.97 1.38 1.48 1.07 1.32 1.66 1.59 1.53 1.45 1.21 1.07 0.79 0.36 0.39 0.17 0.37 0.40
0.01 0.01 0.01 0.01 0.02 0.01 0.01 0.00 0.00 0.00 0.00 0.00 0.00 0.00 0.00 0.00 0.00 0.00 0.00 0.00 0.01 0.00 0.00 0.00 0.00 0.00 0.00 0.00 0.00 0.00 0.00 0.00 0.00 0.00 0.00 0.00 0.00 0.00 0.00 0.00 0.00 0.00 0.00 0.00 0.00 0.00 0.00 0.00 0.00 0.00 0.00 0.00 0.00 0.01 0.00 0.00 0.00 0.00 0.03 0.00 0.01 0.03 0.24 0.20 0.27 0.44 0.39 0.87 0.46 0.41 0.82 1.90 1.50 1.45 1.67 1.67 1.34 1.64 1.89 1.37 1.13 1.06 0.91 0.47 0.42 0.19 0.08 0.05
0.00 0.00 0.02 0.01 0.02 0.02 0.00 0.00 0.00 0.00 0.00 0.00 0.00 0.00 0.00 0.00 0.00 0.00 0.00 0.00 0.02 0.00 0.00 0.00 0.00 0.00 0.00 0.00 0.00 0.00 0.00 0.00 0.00 0.00 0.00 0.00 0.00 0.00 0.00 0.00 0.00 0.00 0.00 0.00 0.00 0.00 0.00 0.00 0.00 0.00 0.00 0.00 0.00 0.00 0.00 0.00 0.00 0.01 0.00 0.02 0.01 0.02 0.08 0.03 0.19 0.37 0.79 0.44 0.89 0.81 0.32 1.22 1.14 1.24 1.17 1.81 1.71 1.61 1.72 1.20 1.47 1.05 0.75 0.70 0.29 0.38 0.12 0.06
0.01 0.01 0.01 0.01 0.01 0.06 0.01 0.00 0.00 0.00 0.00 0.00 0.00 0.00 0.00 0.00 0.00 0.00 0.00 0.07 0.00 0.00 0.00 0.00 0.00 0.00 0.00 0.00 0.00 0.00 0.02 0.00 0.00 0.00 0.00 0.00 0.00 0.00 0.00 0.00 0.00 0.00 0.00 0.00 0.00 0.00 0.00 0.00 0.00 0.00 0.00 0.00 0.00 0.00 0.02 0.00 0.00 0.01 0.01 0.01 0.01 0.09 0.02 0.01 0.03 0.11 0.21 0.10 0.71 0.41 0.41 0.87 0.83 1.18 0.83 1.49 2.12 1.82 1.97 1.94 1.28 0.83 0.55 0.51 0.40 0.24 0.16 0.07
0.01 0.01 0.01 0.02 0.01 0.01 0.01 0.00 0.00 0.00 0.00 0.00 0.00 0.00 0.00 0.00 0.00 0.00 0.04 0.11 0.00 0.00 0.00 0.00 0.00 0.00 0.00 0.00 0.00 0.00 0.00 0.00 0.03 0.00 0.00 0.00 0.00 0.00 0.00 0.00 0.00 0.00 0.00 0.00 0.00 0.00 0.00 0.00 0.00 0.00 0.00 0.00 0.00 0.00 0.00 0.00 0.00 0.00 0.00 0.00 0.00 0.03 0.07 0.04 0.06 0.22 0.26 0.08 0.18 0.15 0.35 0.52 0.70 1.31 0.87 1.25 1.22 1.06 1.19 1.39 1.18 1.27 0.63 0.48 0.42 0.37 0.51 0.31
0.01 0.01 0.02 0.02 0.01 0.01 0.00 0.00 0.00 0.00 0.00 0.00 0.00 0.00 0.00 0.00 0.00 0.04 0.04 0.07 0.00 0.00 0.00 0.00 0.00 0.00 0.00 0.00 0.00 0.00 0.00 0.00 0.00 0.00 0.00 0.00 0.00 0.00 0.00 0.00 0.00 0.00 0.00 0.00 0.00 0.00 0.00 0.00 0.00 0.00 0.00 0.00 0.00 0.00 0.01 0.03 0.00 0.00 0.00 0.00 0.01 0.02 0.02 0.07 0.28 0.52 0.37 0.14 0.12 0.10 0.23 0.13 0.79 0.83 0.53 0.83 0.49 0.62 0.72 1.13 1.11 1.05 0.83 0.56 0.40 0.35 0.28 0.24
0.01 0.01 0.01 0.04 0.01 0.00 0.00 0.00 0.00 0.00 0.00 0.00 0.00 0.00 0.00 0.00 0.02 0.07 0.11 0.02 0.00 0.00 0.00 0.00 0.00 0.00 0.00 0.00 0.00 0.00 0.00 0.00 0.00 0.00 0.00 0.00 0.00 0.00 0.00 0.00 0.00 0.00 0.00 0.00 0.02 0.00 0.00 0.00 0.00 0.00 0.00 0.00 0.00 0.04 0.00 0.01 0.02 0.00 0.01 0.19 0.08 0.26 0.56 0.50 1.13 1.30 0.24 0.10 0.06 0.17 0.31 0.37 0.49 0.93 0.56 0.22 0.15 0.17 0.34 0.82 1.12 1.20 0.74 0.68 0.59 0.68 0.28 0.35
0.00 0.01 0.00 0.03 0.00 0.01 0.00 0.00 0.00 0.00 0.00 0.00 0.00 0.00 0.00 0.10 0.08 0.13 0.05 0.00 0.03 0.00 0.00 0.00 0.00 0.00 0.00 0.00 0.00 0.00 0.00 0.00 0.00 0.00 0.00 0.00 0.00 0.00 0.00 0.00 0.00 0.04 0.00 0.00 0.00 0.00 0.00 0.00 0.00 0.00 0.00 0.00 0.00 0.01 0.02 0.00 0.00 0.00 0.03 0.05 0.19 0.62 1.04 0.35 0.97 0.26 0.06 0.31 0.55 0.47 0.63 1.33 0.33 0.35 0.24 0.32 0.16 0.18 0.17 0.23 0.48 0.88 0.84 0.70 0.56 0.66 0.67 0.62
0.00 0.00 0.01 0.01 0.01 0.00 0.00 0.00 0.00 0.00 0.00 0.00 0.00 0.00 0.01 0.21 0.10 0.06 0.04 0.00 0.04 0.00 0.00 0.00 0.00 0.00 0.00 0.00 0.00 0.00 0.00 0.03 0.00 0.00 0.00 0.00 0.00 0.00 0.00 0.00 0.00 0.00 0.03 0.00 0.00 0.00 0.00 0.00 0.00 0.00 0.00 0.00 0.00 0.01 0.05 0.00 0.08 0.01 0.02 0.06 0.05 0.22 0.17 0.21 0.16 0.15 0.20 0.19 0.38 0.36 0.78 0.67 0.45 0.20 0.11 0.19 0.19 0.10 0.10 0.09 0.33 0.73 0.79 0.67 0.48 0.28 0.56 0.60
0.00 0.00 0.00 0.00 0.00 0.00 0.00 0.00 0.00 0.00 0.00 0.00 0.00 0.00 0.06 0.10 0.18 0.02 0.01 0.00 0.01 0.00 0.00 0.01 0.00 0.00 0.00 0.03 0.01 0.00 0.01 0.00 0.00 0.01 0.00 0.01 0.00 0.00 0.00 0.00 0.00 0.00 0.00 0.01 0.00 0.00 0.01 0.00 0.00 0.00 0.00 0.00 0.00 0.00 0.00 0.02 0.00 0.08 0.02 0.03 0.04 0.09 0.17 0.32 0.31 0.46 0.20 0.58 0.30 0.40 0.20 0.75 0.36 1.55 0.14 0.49 0.11 0.13 0.09 0.11 0.24 0.46 0.82 1.03 0.92 0.48 0.50 0.35
0.00 0.00 0.00 0.00 0.00 0.00 0.00 0.00 0.00 0.00 0.00 0.00 0.00 0.10 0.18 0.07 0.03 0.04 0.01 0.00 0.00 0.00 0.00 0.00 0.00 0.00 0.01 0.00 0.00 0.00 0.00 0.01 0.00 0.00 0.00 0.00 0.00 0.01 0.00 0.00 0.00 0.00 0.00 0.00 0.00 0.00 0.00 0.00 0.00 0.00 0.00 0.00 0.00 0.00 0.00 0.01 0.01 0.01 0.09 0.04 0.01 0.02 0.00 0.06 0.23 0.16 0.17 0.25 0.26 0.49 0.46 0.48 0.42 0.38 0.33 0.35 0.26 0.12 0.19 0.39 0.44 0.78 0.92 0.99 0.99 0.99 0.74 0.45
0.00 0.00 0.00 0.00 0.00 0.00 0.00 0.00 0.00 0.00 0.00 0.00 0.06 0.17 0.23 0.01 0.03 0.00 0.01 0.00 0.00 0.00 0.00 0.00 0.00 0.00 0.00 0.01 0.00 0.01 0.00 0.00 0.00 0.00 0.00 0.00 0.00 0.02 0.00 0.00 0.00 0.00 0.00 0.01 0.01 0.01 0.00 0.00 0.00 0.00 0.00 0.00 0.00 0.00 0.00 0.00 0.04 0.01 0.02 0.06 0.00 0.01 0.01 0.16 0.04 0.07 0.08 0.20 0.34 0.13 0.36 0.19 0.06 0.31 0.31 0.66 0.79 0.39 0.39 0.39 0.31 0.66 0.62 0.67 0.67 0.61 0.89 0.41
0.00 0.00 0.01 0.00 0.00 0.00 0.00 0.00 0.00 0.00 0.00 0.00 0.16 0.22 0.01 0.00 0.00 0.00 0.00 0.00 0.00 0.00 0.00 0.00 0.00 0.00 0.00 0.05 0.03 0.00 0.00 0.00 0.00 0.00 0.02 0.00 0.01 0.00 0.00 0.00 0.00 0.00 0.00 0.00 0.00 0.00 0.00 0.02 0.00 0.00 0.00 0.00 0.00 0.00 0.00 0.00 0.00 0.01 0.06 0.00 0.00 0.00 0.08 0.05 0.28 0.14 0.17 0.30 0.63 0.22 0.37 0.52 0.19 0.80 0.50 0.92 0.76 0.75 0.26 0.23 0.36 0.32 0.46 0.83 0.44 0.58 0.42 0.62
0.00 0.00 0.00 0.00 0.00 0.00 0.00 0.00 0.00 0.00 0.00 0.07 0.16 0.01 0.00 0.01 0.00 0.00 0.00 0.00 0.00 0.00 0.00 0.00 0.00 0.00 0.00 0.00 0.04 0.01 0.00 0.00 0.01 0.00 0.03 0.00 0.06 0.00 0.00 0.00 0.00 0.00 0.00 0.00 0.00 0.01 0.00 0.01 0.00 0.00 0.00 0.00 0.00 0.00 0.03 0.01 0.00 0.01 0.02 0.01 0.05 0.16 0.10 0.05 0.09 0.18 0.19 0.31 0.40 0.47 0.49 0.41 0.39 0.61 0.25 0.35 0.22 0.23 0.14 0.40 0.68 0.42 0.45 0.56 0.73 0.64 0.36 0.27
0.00 0.00 0.00 0.00 0.00 0.00 0.00 0.00 0.00 0.00 0.03 0.16 0.08 0.05 0.01 0.01 0.00 0.00 0.00 0.00 0.00 0.00 0.00 0.00 0.00 0.00 0.00 0.00 0.02 0.00 0.01 0.02 0.00 0.01 0.02 0.00 0.02 0.00 0.00 0.00 0.00 0.00 0.00 0.00 0.00 0.00 0.00 0.01 0.00 0.00 0.00 0.00 0.00 0.00 0.03 0.00 0.01 0.00 0.00 0.02 0.00 0.06 0.05 0.11 0.02 0.21 0.18 0.25 0.15 0.90 0.80 0.77 0.93 0.92 0.27 0.38 0.39 0.13 0.09 0.11 0.26 0.56 0.56 0.69 0.52 0.47 0.30 0.33
0.00 0.01 0.00 0.00 0.00 0.00 0.00 0.00 0.00 0.01 0.11 0.36 0.07 0.05 0.01 0.00 0.00 0.00 0.00 0.00 0.00 0.00 0.06 0.00 0.00 0.00 0.00 0.00 0.00 0.00 0.01 0.00 0.00 0.02 0.01 0.02 0.00 0.00 0.00 0.00 0.00 0.00 0.00 0.00 0.00 0.00 0.00 0.00 0.03 0.03 0.00 0.00 0.01 0.00 0.01 0.00 0.00 0.00 0.00 0.01 0.00 0.00 0.14 0.03 0.04 0.03 0.19 0.10 0.13 0.17 0.56 0.49 0.52 0.41 0.44 0.34 0.22 0.10 0.13 0.11 0.35 0.93 1.01 0.93 0.60 0.67 0.64 0.53
0.00 0.00 0.01 0.00 0.00 0.00 0.00 0.00 0.03 0.10 0.07 0.11 0.01 0.02 0.01 0.01 0.00 0.00 0.00 0.00 0.00 0.00 0.00 0.00 0.00 0.00 0.00 0.01 0.02 0.00 0.00 0.00 0.01 0.02 0.00 0.01 0.00 0.01 0.00 0.00 0.00 0.00 0.00 0.00 0.00 0.00 0.00 0.00 0.02 0.02 0.05 0.01 0.03 0.00 0.01 0.00 0.00 0.01 0.01 0.04 0.05 0.02 0.07 0.06 0.14 0.02 0.02 0.08 0.19 0.16 0.39 0.65 0.57 0.66 0.54 1.19 1.11 0.88 0.58 1.09 1.08 1.15 0.93 0.80 0.53 0.62 0.79 0.44
0.00 0.05 0.00 0.00 0.00 0.00 0.00 0.09 0.07 0.05 0.05 0.10 0.11 0.01 0.02 0.00 0.01 0.00 0.00 0.00 0.00 0.00 0.00 0.00 0.00 0.00 0.00 0.00 0.00 0.01 0.00 0.00 0.02 0.02 0.01 0.04 0.00 0.00 0.00 0.00 0.00 0.00 0.00 0.00 0.01 0.04 0.00 0.03 0.00 0.04 0.01 0.03 0.01 0.01 0.00 0.00 0.00 0.00 0.00 0.03 0.01 0.01 0.01 0.04 0.06 0.10 0.01 0.05 0.03 0.23 0.21 0.64 0.22 0.69 0.37 0.26 0.26 0.18 0.54 0.63 0.70 0.83 0.57 0.35 0.36 0.45 0.79 0.84
0.00 0.01 0.00 0.00 0.00 0.00 0.00 0.05 0.03 0.02 0.08 0.03 0.01 0.03 0.01 0.02 0.01 0.04 0.01 0.03 0.02 0.05 0.02 0.01 0.00 0.01 0.01 0.00 0.00 0.00 0.00 0.01 0.02 0.03 0.02 0.02 0.02 0.00 0.00 0.00 0.00 0.00 0.00 0.00 0.00 0.00 0.00 0.02 0.02 0.01 0.00 0.00 0.00 0.01 0.00 0.00 0.00 0.00 0.00 0.00 0.00 0.00 0.00 0.06 0.09 0.06 0.14 0.18 0.06 0.21 0.19 0.47 0.29 0.32 0.46 0.68 0.38 0.07 0.15 0.46 0.80 0.41 0.44 0.30 0.88 0.60 0.94 1.04
0.00 0.01 0.00 0.00 0.00 0.00 0.02 0.14 0.14 0.04 0.01 0.01 0.02 0.03 0.00 0.01 0.01 0.06 0.04 0.05 0.04 0.05 0.04 0.03 0.02 0.04 0.02 0.00 0.01 0.01 0.01 0.02 0.04 0.03 0.04 0.05 0.05 0.01 0.00 0.00 0.00 0.00 0.00 0.00 0.00 0.03 0.01 0.01 0.06 0.06 0.07 0.01 0.03 0.00 0.00 0.00 0.00 0.01 0.01 0.02 0.03 0.00 0.00 0.00 0.02 0.02 0.02 0.04 0.09 0.12 0.43 0.54 0.25 0.26 0.16 0.58 0.20 0.12 0.28 0.54 0.48 0.26 0.30 0.52 0.78 1.56 1.16 1.14
0.02 0.01 0.00 0.00 0.00 0.00 0.07 0.10 0.07 0.09 0.02 0.02 0.05 0.02 0.04 0.03 0.02 0.02 0.03 0.05 0.04 0.05 0.01 0.04 0.08 0.09 0.03 0.02 0.01 0.00 0.01 0.00 0.04 0.04 0.05 0.06 0.04 0.02 0.00 0.00 0.00 0.00 0.00 0.00 0.00 0.00 0.00 0.02 0.06 0.11 0.06 0.11 0.10 0.17 0.14 0.19 0.08 0.04 0.02 0.03 0.03 0.04 0.02 0.02 0.02 0.03 0.00 0.07 0.06 0.16 0.43 0.37 0.53 0.38 0.23 0.27 0.12 0.06 0.09 0.16 0.09 0.28 0.59 0.17 0.49 0.86 1.59 1.67
0.02 0.21 0.01 0.00 0.00 0.02 0.02 0.00 0.02 0.07 0.07 0.03 0.02 0.03 0.01 0.06 0.03 0.03 0.02 0.03 0.01 0.02 0.05 0.05 0.03 0.03 0.09 0.08 0.05 0.02 0.01 0.01 0.02 0.06 0.10 0.12 0.06 0.04 0.02 0.01 0.00 0.00 0.00 0.00 0.00 0.00 0.01 0.01 0.01 0.04 0.10 0.26 0.40 0.06 0.01 0.00 0.02 0.02 0.03 0.04 0.04 0.04 0.02 0.00 0.02 0.04 0.03 0.02 0.17 0.11 0.13 0.10 0.16 0.30 0.17 0.14 0.30 0.16 0.11 0.05 0.05 0.07 0.17 0.51 0.38 0.82 1.05 1.25
0.17 0.07 0.02 0.28 0.02 0.12 0.01 0.09 0.05 0.11 0.08 0.03 0.11 0.04 0.06 0.03 0.01 0.03 0.02 0.16 0.08 0.02 0.02 0.06 0.06 0.06 0.13 0.10 0.10 0.07 0.04 0.02 0.03 0.05 0.11 0.11 0.07 0.04 0.03 0.02 0.01 0.00 0.01 0.00 0.00 0.01 0.00 0.03 0.00 0.02 0.01 0.09 0.07 0.05 0.03 0.00 0.02 0.02 0.06 0.08 0.04 0.04 0.02 0.01 0.02 0.03 0.01 0.02 0.09 0.16 0.10 0.14 0.26 0.07 0.12 0.14 0.15 0.31 0.09 0.03 0.13 0.04 0.17 0.36 0.40 0.65 0.58 1.15
0.27 0.08 0.06 0.41 0.16 0.08 0.13 0.07 0.03 0.07 0.06 0.09 0.39 0.05 0.06 0.03 0.02 0.10 0.01 0.02 0.02 0.08 0.06 0.45 0.08 0.13 0.12 0.09 0.08 0.11 0.12 0.08 0.03 0.06 0.13 0.10 0.11 0.16 0.10 0.07 0.03 0.03 0.01 0.01 0.00 0.01 0.02 0.02 0.04 0.01 0.01 0.03 0.03 0.08 0.33 0.17 0.08 0.07 0.09 0.08 0.02 0.00 0.00 0.00 0.02 0.00 0.01 0.04 0.26 0.33 0.13 0.18 0.15 0.11 0.09 0.11 0.16 0.28 0.30 0.16 0.14 0.08 0.08 0.21 0.29 0.32 0.31 0.39
0.08 0.17 0.03 0.17 0.19 0.15 0.05 0.09 0.02 0.06 0.05 0.06 0.10 0.08 0.03 0.02 0.02 0.04 0.02 0.02 0.01 0.07 0.18 0.21 0.08 0.11 0.10 0.15 0.11 0.19 0.16 0.16 0.22 0.17 0.08 0.16 0.09 0.06 0.08 0.10 0.07 0.02 0.02 0.01 0.01 0.01 0.02 0.02 0.03 0.01 0.02 0.02 0.01 0.05 0.03 0.06 0.04 0.09 0.05 0.08 0.04 0.02 0.00 0.00 0.01 0.01 0.02 0.01 0.04 0.07 0.11 0.21 0.20 0.21 0.10 0.12 0.08 0.24 0.40 0.11 0.08 0.04 0.14 0.29 0.14 0.16 0.34 0.47
0.40 0.23 0.93 0.11 0.49 0.14 0.04 0.06 0.04 0.04 0.05 0.10 0.12 0.17 0.12 0.06 0.06 0.03 0.03 0.03 0.06 0.05 0.12 0.07 0.07 0.07 0.07 0.06 0.09 0.18 0.22 0.06 0.10 0.09 0.04 0.04 0.07 0.06 0.09 0.09 0.11 0.10 0.03 0.05 0.02 0.06 0.02 0.08 0.01 0.07 0.06 0.05 0.01 0.00 0.04 0.17 0.21 0.11 0.12 0.05 0.10 0.07 0.04 0.01 0.00 0.02 0.03 0.03 0.04 0.16 0.08 0.19 0.25 0.09 0.15 0.12 0.13 0.23 0.31 0.46 0.17 0.20 0.07 0.25 0.20 0.21 0.39 0.48
0.36 0.58 0.91 0.80 0.33 0.26 0.20 0.10 0.12 0.19 0.22 0.05 0.09 0.12 0.05 0.11 0.11 0.13 0.05 0.03 0.04 0.10 0.20 0.08 0.05 0.07 0.07 0.07 0.08 0.15 0.06 0.05 0.04 0.03 0.02 0.02 0.10 0.09 0.07 0.15 0.06 0.18 0.15 0.10 0.07 0.05 0.00 0.12 0.02 0.01 0.09 0.09 0.03 0.04 0.02 0.02 0.07 0.08 0.14 0.23 0.22 0.16 0.15 0.08 0.03 0.06 0.04 0.11 0.15 0.16 0.12 0.26 0.22 0.12 0.04 0.20 0.19 0.10 0.58 0.66 0.28 0.14 0.14 0.29 0.12 0.10 0.09 0.22
0.33 0.70 0.68 0.96 0.59 0.32 0.21 0.05 0.09 0.16 0.22 0.13 0.29 0.10 0.11 0.10 0.07 0.14 0.29 0.07 0.09 0.27 0.11 0.14 0.10 0.09 0.04 0.05 0.17 0.14 0.09 0.03 0.02 0.01 0.01 0.01 0.00 0.01 0.02 0.03 0.04 0.05 0.10 0.10 0.09 0.10 0.06 0.10 0.10 0.14 0.11 0.12 0.07 0.05 0.07 0.03 0.02 0.04 0.14 0.04 0.17 0.04 0.06 0.03 0.03 0.06 0.08 0.05 0.20 0.23 0.58 0.15 0.19 0.23 0.18 0.13 0.11 0.35 0.27 0.52 0.63 0.39 0.13 0.35 0.29 0.24 0.30 0.17